GW0020 Weather Reports


time (UTC)temp
C
wind
direction
speed
KPH
gust
KPH
rain 1hr
cm
rain 24hr
cm
rain mn
cm
humidity
%
barometer
mb
20260509213049 33 124 0.0 3.2 0.00 0.05 0.05 53 1009.3
20260509211545 32 205 1.6 6.4 0.00 0.05 0.05 54 1009.5
20260509210058 32 148 1.6 4.8 0.00 0.05 0.05 53 1009.7
20260509204554 32 0 0.0 6.4 0.00 0.05 0.05 53 1010.0
20260509203110 33 268 0.0 3.2 0.00 0.05 0.05 54 1010.1
20260509201556 32 131 0.0 3.2 0.00 0.05 0.05 59 1010.5
20260509200056 31 330 0.0 3.2 0.00 0.05 0.05 57 1010.8
20260509194554 30 352 0.0 4.8 0.00 0.05 0.05 62 1010.8
20260509193059 29 165 0.0 9.7 0.00 0.05 0.05 63 1010.8
20260509191600 28 0 0.0 0.0 0.00 0.05 0.05 65 1010.9
20260509190056 28 0 0.0 3.2 0.00 0.05 0.05 69 1011.2
20260509184558 27 0 0.0 0.0 0.00 0.05 0.05 73 1011.5
20260509183056 26 0 0.0 0.0 0.00 0.05 0.05 76 1011.7
20260509181551 26 0 0.0 0.0 0.03 0.05 0.05 79 1011.9
20260509180058 26 0 0.0 0.0 0.05 0.05 0.05 78 1012.2
20260509174612 26 0 0.0 0.0 0.05 0.05 0.05 79 1011.9
20260509173051 26 0 0.0 0.0 0.05 0.05 0.05 84 1012.1
20260509171543 26 0 0.0 0.0 0.03 0.03 0.03 77 1012.5
20260509170051 26 0 0.0 0.0 0.00 0.00 0.00 73 1012.7
20260509164553 28 0 0.0 0.0 0.00 0.00 0.00 70 1012.5
20260509163051 28 0 0.0 0.0 0.00 0.00 0.00 72 1012.4
20260509161549 26 0 0.0 0.0 0.00 0.00 0.00 77 1012.4
20260509160051 26 0 0.0 0.0 0.00 0.00 0.00 77 1012.3
20260509154659 27 0 0.0 0.0 0.00 0.00 0.00 73 1012.1
20260509153100 28 0 0.0 0.0 0.00 0.00 0.00 74 1011.6
20260509151558 27 0 0.0 0.0 0.00 0.00 0.00 74 1011.7
20260509150201 27 0 0.0 0.0 0.00 0.00 0.00 75 1011.7
20260509144559 26 0 0.0 0.0 0.00 0.00 0.00 77 1011.6
20260509143055 25 0 0.0 3.2 0.00 0.00 0.00 80 1011.2
20260509141548 25 167 0.0 4.8 0.00 0.00 0.00 82 1011.4
20260509140051 24 211 0.0 4.8 0.00 0.00 0.00 84 1011.1
20260509134552 23 160 1.6 4.8 0.00 0.00 0.00 87 1011.1
20260509133050 22 191 1.6 4.8 0.00 0.00 0.00 89 1010.8
20260509131549 22 0 0.0 4.8 0.00 0.00 0.00 91 1010.9
20260509130104 21 170 0.0 1.6 0.00 0.00 0.00 92 1011.0
20260509124553 21 0 0.0 0.0 0.00 0.00 0.00 92 1011.2
20260509123054 21 0 0.0 1.6 0.00 0.00 0.00 92 1011.3
20260509121601 21 142 0.0 0.0 0.00 0.00 0.00 92 1011.5
20260509120051 21 0 0.0 1.6 0.00 0.00 0.00 92 1011.7
20260509114558 21 0 0.0 1.6 0.00 0.00 0.00 92 1011.9
20260509113058 21 0 0.0 0.0 0.00 0.00 0.00 92 1012.2
20260509111551 21 0 0.0 0.0 0.00 0.00 0.00 92 1012.4
20260509110056 21 0 0.0 4.8 0.00 0.00 0.00 92 1012.9
20260509104552 21 0 0.0 1.6 0.00 0.00 0.00 92 1012.9
20260509103059 21 0 0.0 0.0 0.00 0.00 0.00 92 1013.0
20260509101600 21 16 0.0 3.2 0.00 0.00 0.00 92 1012.6
20260509100050 21 0 1.6 3.2 0.00 0.00 0.00 92 1012.5
20260509094556 21 0 0.0 3.2 0.00 0.00 0.00 92 1011.9
20260509093052 21 0 0.0 0.0 0.00 0.00 0.00 91 1011.7
20260509091544 21 0 0.0 0.0 0.00 0.00 0.00 90 1010.9
20260509090052 21 0 0.0 0.0 0.00 0.00 0.00 90 1011.0
20260509084550 22 0 0.0 0.0 0.00 0.00 0.00 90 1011.4
20260509083055 22 0 0.0 0.0 0.00 0.00 0.00 89 1011.7
20260509081547 22 0 0.0 0.0 0.00 0.00 0.00 89 1011.7
20260509080053 22 0 0.0 0.0 0.00 0.00 0.00 89 1011.7
20260509074546 22 0 0.0 0.0 0.00 0.00 0.00 89 1011.9
20260509073051 22 0 0.0 0.0 0.00 0.00 0.00 88 1012.0
20260509071548 22 0 0.0 1.6 0.00 0.00 0.00 88 1012.2
20260509070052 22 0 0.0 1.6 0.00 0.00 0.00 88 1012.1
20260509064549 22 0 0.0 0.0 0.00 0.00 0.00 88 1012.0
20260509063051 22 0 0.0 0.0 0.00 0.00 0.00 87 1012.0
20260509061553 22 0 0.0 1.6 0.00 0.00 0.00 87 1012.1
20260509060104 22 0 0.0 4.8 0.00 0.00 0.00 87 1011.8
20260509054559 22 142 0.0 3.2 0.00 0.00 0.00 87 1011.9
20260509053110 22 165 0.0 1.6 0.00 0.00 0.00 87 1010.9
20260509051553 22 0 0.0 1.6 0.00 0.00 0.00 87 1010.4
20260509050049 22 0 0.0 1.6 0.00 0.00 0.00 87 1010.3
20260509044628 22 0 0.0 3.2 0.00 0.00 0.00 86 1010.5
20260509043130 22 162 0.0 4.8 0.00 0.00 0.00 86 1010.9
20260509041545 22 0 0.0 0.0 0.00 0.00 0.00 86 1010.9
20260509040059 22 0 0.0 0.0 0.00 0.00 0.00 86 1011.2
20260509034554 22 0 0.0 0.0 0.00 0.00 0.00 86 1011.2
20260509033052 22 0 0.0 0.0 0.00 0.00 0.00 86 1011.0
20260509031559 22 0 0.0 1.6 0.00 0.00 0.00 85 1010.6
20260509030112 22 169 0.0 3.2 0.00 0.00 0.00 84 1010.5
20260509024552 22 0 0.0 3.2 0.00 0.00 0.00 84 1010.4
20260509023055 22 0 0.0 0.0 0.00 0.00 0.00 84 1010.4
20260509021551 22 0 0.0 0.0 0.00 0.00 0.00 83 1010.2
20260509014700 23 0 0.0 0.0 0.00 0.00 0.00 82 1009.8
20260509014604 23 0 0.0 0.0 0.00 0.00 0.00 82 1009.8
20260509013058 23 0 0.0 0.0 0.00 0.00 0.00 82 1009.7
20260509011601 23 0 0.0 3.2 0.00 0.00 0.00 81 1009.6
20260509010057 23 131 0.0 3.2 0.00 0.00 0.00 80 1009.6
20260509004556 23 120 0.0 3.2 0.00 0.00 0.00 79 1009.7
20260509003053 24 0 0.0 1.6 0.00 0.00 0.00 78 1009.6
20260509001553 24 0 0.0 1.6 0.00 0.00 0.00 78 1009.6
20260509000049 24 0 0.0 3.2 0.00 0.00 0.00 78 1009.8
20260508234550 23 120 0.0 3.2 0.00 0.00 0.00 78 1009.9
20260508233047 23 0 0.0 4.8 0.00 0.00 0.00 78 1009.8
20260508231548 24 0 0.0 4.8 0.00 0.00 0.00 78 1009.6
20260508230044 24 0 0.0 1.6 0.00 0.00 0.00 77 1009.7
20260508224622 24 0 0.0 3.2 0.00 0.00 0.00 76 1009.9
20260508223051 25 137 0.0 3.2 0.00 0.00 0.00 75 1009.8
20260508221551 25 0 0.0 3.2 0.00 0.00 0.00 75 1009.9
20260508220051 25 323 0.0 6.4 0.00 0.00 0.00 73 1010.0
20260508214551 25 0 0.0 3.2 0.00 0.00 0.00 72 1009.9